Terminal Aerodrome Forecast
Issued by NWS Cheyenne, WY

Home | Current Version | Previous Version | Text Only | Print | Product List | Glossary On
Versions: 1 2 3 4 5 6 7 8 9 10 11 12 13 14 15 16 17 18 19 20 21 22 23 24 25 26 27 28 29 30 31 32 33 34 35 36 37
000
FTUS45 KCYS 292300
TAFCYS
TAF
KCYS 292320Z 3000/3024 09015KT 2SM +RA VCTS SCT025CB OVC040
     FM300600 08020KT 1SM RA VCTS BKN010CB
     FM301200 08009KT 4SM -RA OVC009=

USA.gov is the U.S. government's official web portal to all federal, state and local government web resources and services.